Regional Weather Roundup
Issued by NWS New Orleans/Baton Rouge, LA

Current Version | Previous Version | Text Only | Print | Product List | Glossary On
Versions: 1 2 3 4 5 6 7 8 9 10 11 12 13 14 15 16 17 18 19 20 21 22 23 24 25 26 27
000
ASUS44 KLIX 252313
RWRLIX
NEW ORLEANS REGIONAL WEATHER ROUNDUP
NATIONAL WEATHER SERVICE NEW ORLEANS LA
500 PM CST SAT FEB 25 2017

NOTE: "FAIR" INDICATES FEW OR NO CLOUDS BELOW 12,000 FEET WITH NO
      SIGNIFICANT WEATHER AND/OR OBSTRUCTIONS TO VISIBILITY.
      SKY/WX - SKY CONDITION AND SIGNIFICANT WEATHER.
      TMP - AIR TEMPERATURE.     DP    - DEWPOINT TEMPERATURE.
      RH  - RELATIVE HUMIDITY.   PRES  - PRESSURE.
      HI  - HEAT INDEX.          WCI   - WIND CHILL INDEX.

*  THESE STATIONS ARE NOT NWS OR FAA STATIONS AND ARE NOT UNDER
   NWS QUALITY CONTROL.

LAZ038-040-048-061>063-065>067-069-260000-
SOUTHEAST LOUISIANA

CITY           SKY/WX    TMP DP  RH WIND       PRES   REMARKS
N.O. AUDUBON   NOT AVBL
N.O. INTL ARPT SUNNY     68  31  25 NW7       30.05S
N.O. LAKEFRONT SUNNY     69  37  30 N16       30.06R
N.O. DOWNTOWN*   N/A     69  31  24 N9        30.06R
RESERVE*         N/A     68  23  18 N12       30.06S
SLIDELL        SUNNY     68  25  19 N9        30.05R
BATON ROUGE    SUNNY     66  27  23 N9        30.08S
BOOTHVILLE     SUNNY     66  43  43 NW7       30.05R
BELLE CHASSE   SUNNY     68  32  26 N7        30.05R
BOGALUSA*        N/A     67  28  23 N10       30.08R
GALLIANO*      CLEAR     67  33  28 N8        30.05S
NEW ROADS*       N/A     61  31  32 NW8       30.10S
GONZALES*        N/A     67  25  21 N8G18     30.06S
HAMMOND*       SUNNY     66  18  15 NW8G17    30.07R
HOUMA*         SUNNY     68  34  28 N12       30.05R
PORT FOURCHON* NOT AVBL

$$

MSZ070-080>082-260000-
SOUTHERN MISSISSIPPI

CITY           SKY/WX    TMP DP  RH WIND       PRES   REMARKS
MCCOMB         SUNNY     61  24  24 NW13      30.09R
GULFPORT       SUNNY     68  27  21 NW9       30.03R
BILOXI         SUNNY     68  30  24 N13       30.03R
PASCAGOULA     CLEAR     68  22  17 NW6       30.02R

$$

COASTAL OBSERVATIONS
LAKE AND NEARSHORE STATIONS

STATION/POSITION TIME  TEMP    WIND        PRES    WAVE
                       AIR SEA DIR/SP/G            HT/PER
                 (UTC) (F)     (DEG/KT/KT) (MB)    (FT/S)
PASCAGOULA       2242   69     320/ 10/ 15 1016.1
WAVELAND YACHT   2248          360/ 16/ 18 1016.9
GRAND ISLE       2242   68 70  340/  6/ 10 1017.8
SOUTHWEST PASS   2248           10/ 12/ 14   N/A
NEW CANAL        2242   67 67  360/ 12/ 15 1016.8
SHELL BEACH      2248          310/ 14/ 16 1017.4

OFFSHORE STATIONS

STATION/POSITION TIME  TEMP    WIND        PRES    WAVE
                       AIR SEA DIR/SP/G            HT/PER
                 (UTC) (F)     (DEG/KT/KT) (MB)    (FT/S)

$$





USA.gov is the U.S. government's official web portal to all federal, state and local government web resources and services.